Weather in Cheremushki

Russia / Lipetsk Oblast     52°24′50″N   39°13′49″E
temp.,
°C
wind,
m/s
gust,
m/s
humid.,
%
clouds,
%
prec.,
mm/h
press.,
hPa
HPBL,
m
9 march, tue
tue900:00−10nnw228988 0.0 101021
03:00−11nnw338994 0.0 101148
06:00−13nnw369567 0.0 1012111
09:00−11n479383 0.0 1014281
12:00−10nnw468854 0.0 1015484
15:00−9nw568672 0.0 1016655
18:00−12nw489296 0.0 1018241
21:00−15nw479460 0.0 1021129
10 march, wed
wed1000:00−15nw369634 0.0 1022171
03:00−18nw469632 0.1 1023113
06:00−19nw48970 0.0 1025146
09:00−18nnw48930 0.0 1027292
12:00−16nnw46880 0.0 1027403
15:00−14nnw35850 0.0 1028473
18:00−16nnw359179 0.0 1028176
21:00−20n359456 0.0 103099
11 march, thu
thu1100:00−22n23950 0.0 103159
03:00−22nne23950 0.0 103348
06:00−22nne23920 0.0 103348
09:00−19nne22840 0.0 1034131
12:00−15n22740 0.0 1034339
15:00−13n22740 0.0 1034373
18:00−16n22860 0.0 103435
21:00−18nne22870 0.0 103522
12 march, fri
fri1200:00−19e11890 0.0 103520
03:00−19se11920 0.0 103520
06:00−19se22920 0.0 103520
09:00−15sse24880 0.0 1035153
12:00−11sse35740 0.0 1035442
15:00−8s46700 0.0 1034765
18:00−11se34810 0.0 103375
21:00−13sse478717 0.0 1033134
13 march, sat
sat1300:00−11sse51085100 0.0 1032266
03:00−10sse51380100 0.0 1031352
06:00−10s61377100 0.0 1030430
09:00−8s71471100 0.0 1030610
12:00−6s81268100 0.0 1029776
15:00−4ssw71165100 0.0 1027868
18:00−5s51269100 0.0 1026478
21:00−6s51369100 0.0 1026432